New Ulm, MN

3:39 AM CST on December 11, 2019 (GMT -0600)
New Ulm Municipal

Weather History for KULM - October, 2019

Change the Weather History Date:

Tuesday, October 15, 2019

  Actual Average Record
Temperature  
Mean Temperature 42 °F -  
Max Temperature 48 °F 59 °F 90 °F (1958)
Min Temperature 35 °F 38 °F 23 °F (1991)
Degree Days  
Heating Degree Days 24    
Moisture  
Dew Point 36 °F    
Average Humidity 77    
Maximum Humidity 100    
Minimum Humidity 62    
Precipitation  
Precipitation 0.00 in - - ()
Sea Level Pressure  
Sea Level Pressure 29.89 in    
Wind  
Wind Speed 11 mph ()    
Max Wind Speed 25 mph    
Max Gust Speed 30 mph    
Visibility 9.9 miles    
Events      
Averages and records for this station are not official NWS values.
T = Trace of Precipitation, MM = Missing Value Source: Averaged Metar Reports

Daily Weather History Graph

Daily Weather History Graph

Search for Another Location

Airport or City:

Astronomy

Oct. 15, 2019 Rise Set
Actual Time 7:32 AM CDT 6:34 PM CDT
Civil Twilight 7:03 AM CDT 7:03 PM CDT
Nautical Twilight 6:29 AM CDT 7:36 PM CDT
Astronomical Twilight 5:56 AM CDT 8:10 PM CDT
Moon 7:51 PM CDT (10/15) 9:05 AM CDT (10/15)
Length of Visible Light 11h 59m
Length of Day
11h 01m
Full, 97% of the Moon is Illuminated
Oct 15
Full
Oct 21
Last Quarter
Oct 27
New
Nov 4
First Quarter
Nov 12
Full

Hourly Weather History & Observations

Time (CDT) Temp. Windchill Dew Point Humidity Pressure Visibility Wind Dir Wind Speed Gust Speed Precip Events Conditions
12:15 AM 44.6 °F 40.7 °F 35.6 °F 71% 29.79 in 10.0 mi East 6.9 mph - N/A   Mostly Cloudy
12:16 AM 44.6 °F 40.2 °F 35.6 °F 71% 29.79 in 10.0 mi ESE 8.1 mph - N/A   Mostly Cloudy
12:35 AM 44.6 °F 39.7 °F 35.6 °F 71% 29.78 in 10.0 mi ESE 9.2 mph - N/A   Scattered Clouds
12:36 AM 44.6 °F 39.7 °F 35.6 °F 71% 29.78 in 10.0 mi ESE 9.2 mph - N/A   Scattered Clouds
12:55 AM 46.4 °F 41.1 °F 35.6 °F 66% 29.76 in 10.0 mi ESE 11.5 mph - N/A   Mostly Cloudy
12:56 AM 46.4 °F 41.9 °F 35.6 °F 66% 29.76 in 10.0 mi SE 9.2 mph - N/A   Mostly Cloudy
1:15 AM 46.4 °F 42.4 °F 35.6 °F 66% 29.75 in 10.0 mi SE 8.1 mph - N/A   Mostly Cloudy
1:35 AM 46.4 °F 41.9 °F 35.6 °F 66% 29.75 in 10.0 mi SSE 9.2 mph - N/A   Scattered Clouds
1:36 AM 46.4 °F 41.9 °F 35.6 °F 66% 29.75 in 10.0 mi SSE 9.2 mph - N/A   Scattered Clouds
1:55 AM 46.4 °F 41.9 °F 37.4 °F 71% 29.74 in 10.0 mi SSE 9.2 mph - N/A   Scattered Clouds
2:15 AM 44.6 °F 39.7 °F 35.6 °F 71% 29.77 in 7.0 mi NNW 9.2 mph - N/A   Clear
2:16 AM 44.6 °F 40.7 °F 35.6 °F 71% 29.77 in 7.0 mi NNW 6.9 mph - N/A   Clear
2:35 AM 44.6 °F - 35.6 °F 71% 29.77 in 10.0 mi Calm Calm - N/A   Clear
2:55 AM 46.4 °F 43.5 °F 37.4 °F 71% 29.75 in 10.0 mi SE 5.8 mph - N/A   Clear
2:56 AM 46.4 °F 44.3 °F 37.4 °F 71% 29.75 in 10.0 mi SE 4.6 mph - N/A   Clear
3:15 AM 44.6 °F - 35.6 °F 71% 29.74 in 10.0 mi Calm Calm - N/A   Clear
3:35 AM 42.8 °F - 35.6 °F 76% 29.75 in 10.0 mi Calm Calm - N/A   Clear
3:55 AM 39.2 °F - 35.6 °F 87% 29.75 in 10.0 mi Calm Calm - N/A   Clear
4:15 AM 39.2 °F - 35.6 °F 87% 29.74 in 10.0 mi Calm Calm - N/A   Clear
4:35 AM 37.4 °F - 35.6 °F 93% 29.74 in 10.0 mi Calm Calm - N/A   Clear
4:55 AM 39.2 °F - 35.6 °F 87% 29.74 in 10.0 mi Calm Calm - N/A   Clear
4:56 AM 39.2 °F - 35.6 °F 87% 29.74 in 10.0 mi Calm Calm - N/A   Clear
5:15 AM 35.6 °F 31.7 °F 32.0 °F 87% 29.75 in 10.0 mi West 4.6 mph - N/A   Clear
5:35 AM 35.6 °F 27.1 °F 33.8 °F 93% 29.77 in 10.0 mi WNW 12.7 mph - N/A   Clear
5:36 AM 35.6 °F 27.1 °F 33.8 °F 93% 29.77 in 10.0 mi WNW 12.7 mph - N/A   Clear
5:55 AM 37.4 °F 32.8 °F 35.6 °F 93% 29.78 in 10.0 mi West 5.8 mph - N/A   Clear
6:15 AM 37.4 °F 32.1 °F 35.6 °F 93% 29.78 in 10.0 mi WNW 6.9 mph - N/A   Clear
6:16 AM 37.4 °F 32.8 °F 35.6 °F 93% 29.78 in 10.0 mi WNW 5.8 mph - N/A   Clear
6:35 AM 37.4 °F 32.1 °F 35.6 °F 93% 29.78 in 10.0 mi West 6.9 mph - N/A   Clear
6:55 AM 37.4 °F 29.3 °F 35.6 °F 93% 29.80 in 10.0 mi WNW 12.7 mph - N/A   Clear
6:56 AM 37.4 °F 29.3 °F 35.6 °F 93% 29.80 in 10.0 mi WNW 12.7 mph - N/A   Clear
7:15 AM 37.4 °F 28.5 °F 35.6 °F 93% 29.80 in 10.0 mi WNW 15.0 mph - N/A   Scattered Clouds
7:16 AM 37.4 °F 28.5 °F 35.6 °F 93% 29.80 in 10.0 mi WNW 15.0 mph - N/A   Scattered Clouds
7:35 AM 37.4 °F 29.3 °F 35.6 °F 93% 29.80 in 10.0 mi WNW 12.7 mph - N/A   Mostly Cloudy
7:55 AM 35.6 °F 27.5 °F 35.6 °F 100% 29.79 in 10.0 mi WNW 11.5 mph - N/A   Scattered Clouds
7:56 AM 35.6 °F 27.5 °F 35.6 °F 100% 29.80 in 10.0 mi WNW 11.5 mph - N/A   Scattered Clouds
8:15 AM 37.4 °F 29.8 °F 35.6 °F 93% 29.80 in 10.0 mi WNW 11.5 mph - N/A   Clear
8:35 AM 37.4 °F 28.5 °F 35.6 °F 93% 29.81 in 10.0 mi WNW 15.0 mph - N/A   Clear
8:36 AM 37.4 °F 28.5 °F 35.6 °F 93% 29.81 in 10.0 mi WNW 15.0 mph - N/A   Clear
8:55 AM 35.6 °F 26.6 °F 33.8 °F 93% 29.82 in 10.0 mi WNW 13.8 mph - N/A   Clear
9:15 AM 37.4 °F 28.9 °F 33.8 °F 87% 29.84 in 10.0 mi WNW 13.8 mph - N/A   Clear
9:16 AM 37.4 °F 29.8 °F 33.8 °F 87% 29.84 in 10.0 mi WNW 11.5 mph - N/A   Clear
9:35 AM 39.2 °F 30.5 °F 35.6 °F 87% 29.84 in 10.0 mi WNW 16.1 mph - N/A   Clear
9:55 AM 41.0 °F 33.5 °F 35.6 °F 81% 29.85 in 10.0 mi WNW 13.8 mph - N/A   Clear
10:15 AM 42.8 °F 35.8 °F 35.6 °F 76% 29.85 in 10.0 mi WNW 13.8 mph - N/A   Clear
10:35 AM 44.6 °F 36.9 °F 35.6 °F 71% 29.85 in 10.0 mi WNW 18.4 mph 23.0 mph N/A   Clear
10:55 AM 46.4 °F 38.1 °F 35.6 °F 66% 29.86 in 10.0 mi WNW 24.2 mph 29.9 mph N/A   Scattered Clouds
10:56 AM 46.4 °F 38.1 °F 35.6 °F 66% 29.86 in 10.0 mi WNW 24.2 mph 29.9 mph N/A   Mostly Cloudy
11:15 AM 46.4 °F 39.2 °F 35.6 °F 66% 29.86 in 10.0 mi NW 18.4 mph 26.5 mph N/A   Mostly Cloudy
11:35 AM 48.2 °F - 35.6 °F 62% 29.87 in 10.0 mi NW 20.7 mph 25.3 mph N/A   Scattered Clouds
11:55 AM 48.2 °F - 37.4 °F 66% 29.87 in 10.0 mi WNW 25.3 mph 28.8 mph N/A   Clear
11:56 AM 48.2 °F - 37.4 °F 66% 29.87 in 10.0 mi WNW 25.3 mph 28.8 mph N/A   Clear
12:15 PM 48.2 °F - 35.6 °F 62% 29.88 in 10.0 mi NW 23.0 mph 27.6 mph N/A   Scattered Clouds
12:35 PM 48.2 °F - 35.6 °F 62% 29.88 in 10.0 mi NW 20.7 mph 25.3 mph N/A   Mostly Cloudy
12:36 PM 46.4 °F 38.7 °F 35.6 °F 66% 29.88 in 10.0 mi NW 20.7 mph 25.3 mph N/A   Mostly Cloudy
12:55 PM 48.2 °F - 37.4 °F 66% 29.89 in 10.0 mi WNW 23.0 mph - N/A   Mostly Cloudy
1:15 PM 48.2 °F - 37.4 °F 66% 29.89 in 10.0 mi WNW 17.3 mph - N/A   Clear
1:35 PM 48.2 °F - 37.4 °F 66% 29.89 in 10.0 mi WNW 19.6 mph 25.3 mph N/A   Scattered Clouds
1:36 PM 48.2 °F - 37.4 °F 66% 29.89 in 10.0 mi WNW 19.6 mph 25.3 mph N/A   Scattered Clouds
1:55 PM 48.2 °F - 35.6 °F 62% 29.90 in 10.0 mi WNW 19.6 mph 25.3 mph N/A   Mostly Cloudy
2:15 PM 46.4 °F 39.2 °F 37.4 °F 71% 29.91 in 10.0 mi WNW 18.4 mph 23.0 mph N/A   Overcast
2:16 PM 46.4 °F 39.5 °F 35.6 °F 66% 29.91 in 10.0 mi WNW 17.3 mph 23.0 mph N/A   Overcast
2:35 PM 48.2 °F - 35.6 °F 62% 29.91 in 10.0 mi WNW 21.9 mph 26.5 mph N/A   Overcast
2:36 PM 48.2 °F - 35.6 °F 62% 29.91 in 10.0 mi WNW 19.6 mph 26.5 mph N/A   Overcast
2:55 PM 48.2 °F - 35.6 °F 62% 29.92 in 10.0 mi WNW 19.6 mph 25.3 mph N/A   Overcast
2:56 PM 46.4 °F 38.7 °F 35.6 °F 66% 29.92 in 10.0 mi WNW 20.7 mph 25.3 mph N/A   Overcast
3:15 PM 46.4 °F 39.0 °F 35.6 °F 66% 29.93 in 10.0 mi WNW 19.6 mph 23.0 mph N/A   Overcast
3:35 PM 46.4 °F 39.0 °F 35.6 °F 66% 29.94 in 10.0 mi NW 19.6 mph 23.0 mph N/A   Overcast
3:55 PM 46.4 °F 39.2 °F 35.6 °F 66% 29.95 in 10.0 mi WNW 18.4 mph 25.3 mph N/A   Overcast
4:15 PM 44.6 °F 37.2 °F 35.6 °F 71% 29.96 in 10.0 mi NW 17.3 mph 26.5 mph N/A   Overcast
4:35 PM 44.6 °F 37.4 °F 35.6 °F 71% 29.97 in 10.0 mi NW 16.1 mph 24.2 mph N/A   Overcast
4:36 PM 44.6 °F 37.4 °F 35.6 °F 71% 29.97 in 10.0 mi NW 16.1 mph 24.2 mph N/A   Overcast
4:55 PM 44.6 °F 36.4 °F 35.6 °F 71% 29.97 in 10.0 mi NW 20.7 mph - N/A   Overcast
5:15 PM 44.6 °F 36.1 °F 35.6 °F 71% 29.98 in 10.0 mi NW 21.9 mph 27.6 mph N/A   Overcast
5:35 PM 42.8 °F 35.8 °F 35.6 °F 76% 30.00 in 10.0 mi NW 13.8 mph 26.5 mph N/A   Overcast
5:36 PM 42.8 °F 35.4 °F 35.6 °F 76% 30.00 in 10.0 mi NW 15.0 mph 20.7 mph N/A   Overcast
5:55 PM 42.8 °F 35.4 °F 35.6 °F 76% 30.00 in 10.0 mi NW 15.0 mph - N/A   Overcast
6:15 PM 42.8 °F 35.4 °F 35.6 °F 76% 30.01 in 10.0 mi NW 15.0 mph 20.7 mph N/A   Overcast
6:16 PM 42.8 °F 35.8 °F 35.6 °F 76% 30.01 in 10.0 mi NW 13.8 mph - N/A   Overcast
6:35 PM 42.8 °F 35.8 °F 35.6 °F 76% 30.02 in 10.0 mi WNW 13.8 mph 19.6 mph N/A   Overcast
6:55 PM 42.8 °F 35.8 °F 35.6 °F 76% 30.02 in 10.0 mi NW 13.8 mph 21.9 mph N/A   Mostly Cloudy
6:56 PM 42.8 °F 35.8 °F 35.6 °F 76% 30.02 in 10.0 mi NW 13.8 mph - N/A   Mostly Cloudy
7:15 PM 42.8 °F 35.8 °F 35.6 °F 76% 30.02 in 10.0 mi NW 13.8 mph - N/A   Scattered Clouds
7:16 PM 41.0 °F 32.8 °F 35.6 °F 81% 30.02 in 10.0 mi NW 16.1 mph - N/A   Scattered Clouds
7:35 PM 42.8 °F 34.8 °F 35.6 °F 76% 30.03 in 10.0 mi WNW 17.3 mph 20.7 mph N/A   Scattered Clouds
7:36 PM 42.8 °F 34.8 °F 35.6 °F 76% 30.03 in 10.0 mi WNW 17.3 mph 20.7 mph N/A   Scattered Clouds
7:55 PM 42.8 °F 35.1 °F 37.4 °F 81% 30.04 in 10.0 mi WNW 16.1 mph 19.6 mph N/A   Mostly Cloudy
8:15 PM 42.8 °F 35.4 °F 37.4 °F 81% 30.04 in 10.0 mi WNW 15.0 mph 20.7 mph N/A   Overcast
8:16 PM 42.8 °F 34.8 °F 37.4 °F 81% 30.04 in 10.0 mi WNW 17.3 mph 20.7 mph N/A   Overcast
8:35 PM 42.8 °F 35.4 °F 37.4 °F 81% 30.05 in 10.0 mi NW 15.0 mph 20.7 mph N/A   Overcast
8:36 PM 42.8 °F 35.4 °F 37.4 °F 81% 30.05 in 10.0 mi WNW 15.0 mph 20.7 mph N/A   Overcast
8:55 PM 42.8 °F 35.1 °F 37.4 °F 81% 30.05 in 10.0 mi NW 16.1 mph 26.5 mph N/A   Overcast
9:15 PM 42.8 °F 35.1 °F 37.4 °F 81% 30.05 in 10.0 mi NW 16.1 mph - N/A   Overcast
9:16 PM 42.8 °F 35.4 °F 37.4 °F 81% 30.05 in 10.0 mi NW 15.0 mph - N/A   Overcast
9:35 PM 42.8 °F 35.1 °F 37.4 °F 81% 30.06 in 10.0 mi NW 16.1 mph 21.9 mph N/A   Overcast
9:55 PM 42.8 °F 34.5 °F 37.4 °F 81% 30.07 in 10.0 mi NW 18.4 mph 23.0 mph N/A   Overcast
10:15 PM 42.8 °F 35.1 °F 37.4 °F 81% 30.08 in 10.0 mi NW 16.1 mph - N/A   Overcast
10:16 PM 42.8 °F 35.1 °F 37.4 °F 81% 30.08 in 10.0 mi NW 16.1 mph - N/A   Overcast
10:35 PM 42.8 °F 35.4 °F 37.4 °F 81% 30.08 in 10.0 mi NW 15.0 mph 21.9 mph N/A   Overcast
10:36 PM 42.8 °F 35.8 °F 37.4 °F 81% 30.08 in 10.0 mi NW 13.8 mph 21.9 mph N/A   Overcast
10:55 PM 42.8 °F 35.8 °F 39.2 °F 87% 30.08 in 10.0 mi NW 13.8 mph 20.7 mph N/A   Overcast
11:15 PM 42.8 °F 35.8 °F 37.4 °F 81% 30.09 in 10.0 mi NW 13.8 mph 17.3 mph N/A   Overcast
11:35 PM 42.8 °F 35.1 °F 37.4 °F 81% 30.09 in 10.0 mi NW 16.1 mph 19.6 mph N/A   Overcast
11:55 PM 41.0 °F 33.5 °F 37.4 °F 87% 30.09 in 10.0 mi NW 13.8 mph 20.7 mph N/A   Mostly Cloudy